This is the latest recevied weather packets stored in our database for station/object K5BOU. If no packets are shown the sender has not sent any weather packets the latest 10 day(s).
| Time | Temp. | Humidity | Pressure | Rain* | Wind** | Luminosity | Snow |
|---|---|---|---|---|---|---|---|
| 1788395243 | 31.67° C | 71% | 1010 hPa | 0 mm | - | 14 W/m² | - |
| 1788394938 | 31.67° C | 70% | 1009.8 hPa | 0 mm | - | 20 W/m² | - |
| 1788394634 | 31.67° C | 68% | 1010 hPa | 0 mm | - | 24 W/m² | - |
| 1788394332 | 32.22° C | 68% | 1010 hPa | 0 mm | - | 30 W/m² | - |
| 1788394028 | 32.22° C | 67% | 1009.8 hPa | 0 mm | - | 34 W/m² | - |
| 1788393722 | 32.22° C | 66% | 1009.8 hPa | 0 mm | - | 39 W/m² | - |
| 1788393420 | 32.22° C | 66% | 1009.6 hPa | 0 mm | - | 46 W/m² | - |
| 1788393116 | 32.78° C | 67% | 1009.6 hPa | 0 mm | - | 52 W/m² | - |
| 1788392815 | 32.78° C | 67% | 1009.8 hPa | 0 mm | - | 60 W/m² | - |
| 1788392514 | 32.78° C | 67% | 1009.8 hPa | 0 mm | - | 65 W/m² | - |
| 1788392209 | 32.78° C | 66% | 1009.7 hPa | 0 mm | - | 73 W/m² | - |
| 1788391909 | 32.78° C | 66% | 1009.7 hPa | 0 mm | - | 80 W/m² | - |
| 1788391608 | 33.33° C | 66% | 1009.7 hPa | 0 mm | - | 91 W/m² | - |
| 1788391307 | 33.33° C | 65% | 1009.7 hPa | 0 mm | - | 98 W/m² | - |
| 1788391001 | 33.33° C | 65% | 1009.6 hPa | 0 mm | - | 110 W/m² | - |
| 1788390696 | 33.89° C | 65% | 1009.7 hPa | 0 mm | - | 117 W/m² | - |
| 1788390392 | 33.89° C | 64% | 1009.7 hPa | 0 mm | - | 115 W/m² | - |
| 1788390090 | 33.89° C | 64% | 1009.5 hPa | 0 mm | - | 130 W/m² | - |
| 1788389786 | 33.89° C | 65% | 1009.6 hPa | 0 mm | - | 142 W/m² | - |
| 1788389504 | 33.89° C | 65% | 1009.6 hPa | 0 mm | - | 137 W/m² | - |
| 1788389184 | 33.89° C | 65% | 1009.4 hPa | 0 mm | - | 139 W/m² | - |
| 1788388880 | 33.89° C | 66% | 1009.5 hPa | 0 mm | - | 144 W/m² | - |
| 1788388576 | 34.44° C | 65% | 1009.6 hPa | 0 mm | - | 151 W/m² | - |
| 1788388275 | 34.44° C | 65% | 1009.6 hPa | 0 mm | - | 153 W/m² | - |
| 1788387974 | 34.44° C | 65% | 1009.6 hPa | 0 mm | - | 163 W/m² | - |
* Rain latest hour (hover to see other rain measurements)
** Current wind speed in m/s (hover to see current wind gust speed)